Weather History for Dickinson, ND

Change the Weather History Date:

Friday, March 14, 2014

  Actual Average Record
Temperature  
Mean Temperature 38 °F 29 °F  
Max Temperature 50 °F 40 °F 71 °F (1935)
Min Temperature 26 °F 18 °F -29 °F (1906)
Degree Days  
Heating Degree Days 27 36  
Month to date heating degree days 559 537  
Since 1 July heating degree days 7201 6831  
Cooling Degree Days 0 0  
Month to date cooling degree days 0 0  
Year to date cooling degree days 0 0  
Moisture  
Dew Point 22 °F    
Average Humidity 57    
Maximum Humidity 85    
Minimum Humidity 29    
Precipitation  
Precipitation 0.00 in 0.02 in 0.16 in (2001)
Month to date precipitation 0.08 0.25  
Year to date precipitation 0.25 0.88  
Sea Level Pressure  
Sea Level Pressure 29.85 in    
Wind  
Wind Speed 10 mph (NW)    
Max Wind Speed 18 mph    
Max Gust Speed 23 mph    
Visibility 10 miles    
Events      
T = Trace of Precipitation, MM = Missing Value Source: NWS Daily Summary

Daily Weather History Graph

Daily Weather History Graph

Search for Another Location

Airport:

Trip Planner

Search our weather history database for the weather conditions in past years. The results will help you decide how hot, cold, wet, or windy it might be!

Date:

Astronomy

Mar. 14, 2014 Rise Set
Actual Time 7:05 AM MDT 6:55 PM MDT
Civil Twilight 6:35 AM MDT 7:25 PM MDT
Nautical Twilight 6:00 AM MDT 8:01 PM MDT
Astronomical Twilight 5:24 AM MDT 8:37 PM MDT
Moon 5:15 PM MDT (3/14) 5:52 AM MDT (3/14)
Length of Visible Light 12h 50m
Length of Day
11h 49m
Waxing Gibbous, 96% of the Moon is Illuminated
Mar 14
Waxing Gibbous
Mar 16
Full
Mar 23
Last Quarter
Mar 30
New
Apr 7
First Quarter

Hourly Weather History & Observations

Time (MDT) Temp. Windchill Dew Point Humidity Pressure Visibility Wind Dir Wind Speed Gust Speed Precip Events Conditions
12:56 AM 30.9 °F 21.7 °F 24.1 °F 76% 29.81 in 10.0 mi WNW 11.5 mph - N/A   Clear
1:56 AM 30.0 °F 20.5 °F 23.0 °F 75% 29.82 in 10.0 mi West 11.5 mph - N/A   Clear
2:56 AM 28.0 °F 18.1 °F 23.0 °F 81% 29.83 in 10.0 mi West 11.5 mph - N/A   Clear
3:56 AM 27.0 °F 16.7 °F 21.9 °F 81% 29.83 in 10.0 mi West 11.5 mph - N/A   Clear
4:56 AM 28.0 °F 18.1 °F 21.9 °F 78% 29.84 in 10.0 mi West 11.5 mph - N/A   Clear
5:56 AM 27.0 °F 17.3 °F 21.9 °F 81% 29.86 in 10.0 mi WNW 10.4 mph - N/A   Clear
6:56 AM 27.0 °F 17.3 °F 21.0 °F 78% 29.88 in 10.0 mi WNW 10.4 mph - N/A   Clear
7:56 AM 28.9 °F 21.1 °F 23.0 °F 78% 29.89 in 10.0 mi WNW 8.1 mph - N/A   Clear
8:56 AM 34.0 °F 25.0 °F 24.1 °F 67% 29.90 in 10.0 mi NW 12.7 mph - N/A   Clear
9:56 AM 37.0 °F 29.3 °F 23.0 °F 57% 29.89 in 10.0 mi WNW 11.5 mph - N/A   Clear
10:56 AM 39.9 °F 31.8 °F 19.9 °F 45% 29.89 in 10.0 mi NW 15.0 mph - N/A   Clear
11:56 AM 43.0 °F 37.7 °F 17.1 °F 35% 29.88 in 10.0 mi NW 9.2 mph - N/A   Clear
12:56 PM 45.0 °F 40.6 °F 16.0 °F 31% 29.86 in 10.0 mi NW 8.1 mph - N/A   Clear
1:56 PM 46.0 °F 41.0 °F 17.1 °F 31% 29.84 in 10.0 mi NW 10.4 mph - N/A   Clear
2:56 PM 48.0 °F - 17.1 °F 29% 29.83 in 10.0 mi Variable 5.8 mph - N/A   Clear
3:56 PM 48.0 °F - 17.1 °F 29% 29.82 in 10.0 mi Variable 3.5 mph - N/A   Clear
4:56 PM 48.9 °F - 17.1 °F 28% 29.82 in 10.0 mi NNW 4.6 mph - N/A   Clear
5:56 PM 45.0 °F 43.5 °F 18.0 °F 34% 29.83 in 10.0 mi NNE 3.5 mph - N/A   Clear
6:56 PM 39.9 °F 33.9 °F 19.0 °F 43% 29.84 in 10.0 mi ENE 9.2 mph - N/A   Mostly Cloudy
7:56 PM 36.0 °F 28.5 °F 25.0 °F 64% 29.86 in 10.0 mi ENE 10.4 mph - N/A   Partly Cloudy
8:56 PM 34.0 °F 25.0 °F 26.1 °F 73% 29.86 in 10.0 mi East 12.7 mph - N/A   Clear
9:56 PM 33.1 °F 23.4 °F 26.1 °F 75% 29.87 in 10.0 mi East 13.8 mph - N/A   Mostly Cloudy
10:56 PM 30.9 °F 19.8 °F 26.1 °F 82% 29.88 in 10.0 mi ESE 16.1 mph - N/A   Overcast
11:31 PM 30.0 °F 18.7 °F 26.1 °F 85% 29.82 in 10.0 mi ESE 16.1 mph - N/A   Overcast
11:56 PM 30.0 °F 20.0 °F 26.1 °F 85% 29.88 in 10.0 mi ESE 12.7 mph - N/A   Overcast